Regional Weather Roundup
Issued by NWS

Home | Current Version | Previous Version | Graphics & Text | Print | Product List | Glossary On
Versions: 1 2 3 4 5 6 7 8 9 10 11 12 13 14 15 16 17 18 19 20 21 22 23 24 25 26 27 28 29 30 31 32 33 34 35 36 37 38 39 40 41 42 43 44 45 46 47 48 49 50
000
ASUS44 KMEG 171110
RWRTN
TENNESSEE HOURLY STATE WEATHER ROUNDUP
NATIONAL WEATHER SERVICE MEMPHIS TN
600 AM CDT THU APR 17 2014

TNZ002-004-019-021-049-052-054-088>092-171200-
WEST TENNESSEE

CITY           SKY/WX    TMP DP  RH WIND       PRES   REMARKS
MEMPHIS INTL   PTCLDY    45  34  65 SE3       30.21R
NWS MEMPHIS      N/A     39 N/A N/A MISG        N/A
JACKSON        CLEAR     40  33  76 CALM      30.25R
DYERSBURG      CLEAR     39  28  65 SE5       30.25R
UNION CITY     CLEAR     37  34  87 CALM      30.23R
PARIS          CLEAR     42  32  68 SE9       30.26R
LEXINGTON      CLEAR     36  34  93 CALM      30.26R
SAVANNAH       CLEAR     41  34  76 CALM      30.27R
$$

TNZ008-025-027-028-033-062-065-066-171200-
NORTH MIDDLE TENNESSEE

CITY           SKY/WX    TMP DP  RH WIND       PRES   REMARKS
NASHVILLE      MOCLDY    46  32  58 S3        30.32R
DICKSON        MOCLDY    48  30  49 S6        30.28R
PORTLAND       CLEAR     45  30  57 S12       30.29R
CLARKSVILLE    CLEAR     44  33  65 S7        30.28R
SMYRNA         PTCLDY    46  31  56 S6        30.33R
MURFREESBORO   MOCLDY    47  31  54 S8        30.31R
COOKEVILLE     CLEAR     43  28  56 CALM      30.31S
LIVINGSTON     PTCLDY    43  26  51 S6        30.32R
GALLATIN       MOCLDY    41  34  76 CALM      30.32R
CROSSVILLE     PTCLDY    42  26  53 S6        30.34R
$$

TNZ061-075-076-078-094-096-097-171200-
SOUTH MIDDLE TENNESSEE

CITY           SKY/WX    TMP DP  RH WIND       PRES   REMARKS
LEWISBURG      MOCLDY    47  30  51 SE6       30.30R
FAYETTEVILLE   CLEAR     40  29  65 SE10      30.31R WCI  33
TULLAHOMA      CLEAR     45  27  49 SE8       30.32R
WINCHESTER     CLEAR     45  28  53 SE12      30.33R
MCMINNVILLE    CLEAR     45  28  53 S3        30.32R
COLUMBIA       CLEAR     48  36  61 SE6       30.28R
SHELBYVILLE    MOCLDY    46  30  53 SE6       30.32R
$$

TNZ017-018-042-046-047-171200-
NORTHEAST TENNESSEE

CITY           SKY/WX    TMP DP  RH WIND       PRES   REMARKS
TRI CITIES     PTCLDY    33  22  63 CALM      30.41R
ELIZABETHTON   SUNNY     36  21  55 CALM      30.41S
$$

TNZ012-013-036-069-073-074-171200-
CENTRAL EAST TENNESSEE

CITY           SKY/WX    TMP DP  RH WIND       PRES   REMARKS
KNOXVILLE      MOCLDY    36  31  82 NW3       30.36R
OAK RIDGE      MOCLDY    35  32  88 CALM      30.38R
$$

TNZ083-085-099-171200-
SOUTHEAST TENNESSEE

CITY           SKY/WX    TMP DP  RH WIND       PRES   REMARKS
CHATTANOOGA    PTCLDY    41  33  73 CALM      30.36R
$$

SKY/WX REPORTED AS FAIR MEANS FEW OR NO CLOUDS BELOW
12 THOUSAND FEET.




USA.gov is the U.S. government's official web portal to all federal, state and local government web resources and services.